Location: Gallinara
(44.0333°N, 8.2333°E)
Time: 02:04:42
(UTC+00:00)

Resurs 1-4 Rocket - Pass Details

Date: 25 September 2020
Orbit: 800 x 813 km, 98.6° (Epoch: 31 October)

Event Time Altitude Azimuth Distance (km) Brightness Sun altitude
Rises 01:23:02 0° 11° (N) 3,327 6.0 -38.9°
Reaches altitude 10° 01:25:23 10° 9° (N) 2,394 5.1 -38.6°
Enters shadow 01:26:57 20° 6° (N) 1,792 4.3 -38.4°
